Precipitable_Water
0.33 0.36 0.39 0.39 0.39 0.39 0.40 0.40 0.40 0.40 0.39 0.39 0.38 0.37 0.36 0.35 0.33 0.31 0.30 0.30 0.31 0.33 0.34 0.32 0.34 0.36 0.36 0.36 0.36 0.36 0.35 0.35 0.35 0.35 0.34 0.33 0.32 0.32 0.33 0.35 0.36 0.36 0.38 0.40 0.39 0.37 0.35 0.34 0.33 0.31 0.31 0.32 0.31 0.29 0.29 0.29 0.30 0.30 0.31 0.32 0.34 0.35 0.36 0.37 0.38 0.39 0.40 0.40 0.41 0.42 0.42 0.42 0.42 0.42
0.31 0.32 0.33 0.37 0.38 0.39 0.39 0.39 0.40 0.40 0.40 0.39 0.38 0.37 0.36 0.36 0.33 0.33 0.31 0.30 0.32 0.32 0.34 0.34 0.34 0.36 0.36 0.37 0.36 0.37 0.36 0.36 0.36 0.35 0.35 0.35 0.33 0.32 0.32 0.34 0.34 0.36 0.37 0.38 0.39 0.39 0.37 0.37 0.36 0.35 0.34 0.34 0.33 0.34 0.34 0.34 0.34 0.34 0.33 0.33 0.32 0.32 0.32 0.33 0.33 0.34 0.35 0.36 0.36 0.36 0.37 0.37 0.38 0.38
0.28 0.29 0.29 0.32 0.34 0.37 0.37 0.38 0.39 0.39 0.39 0.39 0.39 0.38 0.37 0.35 0.34 0.34 0.34 0.31 0.32 0.33 0.31 0.33 0.35 0.35 0.37 0.37 0.37 0.37 0.37 0.37 0.36 0.35 0.35 0.35 0.35 0.34 0.33 0.34 0.34 0.34 0.37 0.38 0.38 0.39 0.38 0.38 0.38 0.38 0.38 0.36 0.34 0.34 0.34 0.35 0.35 0.35 0.35 0.35 0.35 0.35 0.34 0.35 0.35 0.35 0.36 0.36 0.36 0.37 0.37 0.37 0.37 0.38
0.28 0.27 0.27 0.29 0.30 0.32 0.34 0.36 0.37 0.37 0.38 0.38 0.38 0.38 0.38 0.36 0.34 0.33 0.33 0.32 0.31 0.32 0.32 0.32 0.33 0.34 0.34 0.36 0.36 0.36 0.36 0.37 0.37 0.36 0.35 0.35 0.35 0.35 0.34 0.34 0.34 0.35 0.36 0.38 0.39 0.37 0.38 0.38 0.38 0.39 0.39 0.38 0.37 0.36 0.35 0.34 0.34 0.34 0.35 0.36 0.37 0.37 0.36 0.36 0.36 0.36 0.36 0.36 0.37 0.37 0.36 0.36 0.37 0.37
0.29 0.29 0.27 0.27 0.27 0.29 0.31 0.33 0.35 0.36 0.36 0.37 0.37 0.37 0.38 0.37 0.36 0.34 0.32 0.30 0.30 0.32 0.33 0.32 0.31 0.32 0.32 0.32 0.33 0.34 0.34 0.35 0.36 0.36 0.35 0.35 0.34 0.34 0.35 0.35 0.36 0.37 0.36 0.36 0.37 0.38 0.37 0.38 0.38 0.38 0.38 0.38 0.39 0.38 0.37 0.36 0.35 0.35 0.35 0.35 0.36 0.37 0.37 0.37 0.37 0.37 0.37 0.37 0.37 0.38 0.37 0.38 0.38 0.38
0.30 0.29 0.28 0.28 0.26 0.26 0.27 0.30 0.32 0.33 0.35 0.35 0.35 0.36 0.35 0.35 0.35 0.36 0.33 0.31 0.30 0.30 0.31 0.31 0.31 0.32 0.32 0.31 0.32 0.32 0.33 0.34 0.36 0.35 0.35 0.35 0.35 0.34 0.35 0.36 0.37 0.37 0.36 0.35 0.36 0.38 0.38 0.38 0.38 0.37 0.37 0.38 0.38 0.37 0.36 0.36 0.35 0.35 0.35 0.35 0.35 0.36 0.37 0.38 0.38 0.38 0.37 0.37 0.38 0.37 0.37 0.37 0.38 0.38
0.28 0.29 0.29 0.29 0.28 0.28 0.26 0.27 0.28 0.30 0.32 0.33 0.34 0.35 0.36 0.36 0.36 0.36 0.35 0.32 0.30 0.30 0.30 0.31 0.30 0.31 0.31 0.32 0.32 0.33 0.33 0.34 0.35 0.36 0.36 0.35 0.36 0.36 0.36 0.37 0.37 0.37 0.37 0.37 0.36 0.37 0.38 0.39 0.38 0.39 0.38 0.37 0.36 0.36 0.37 0.37 0.37 0.37 0.36 0.36 0.36 0.36 0.37 0.37 0.37 0.37 0.37 0.37 0.37 0.37 0.37 0.38 0.38 0.38
0.27 0.28 0.28 0.29 0.30 0.29 0.28 0.26 0.25 0.27 0.28 0.30 0.31 0.32 0.33 0.34 0.35 0.36 0.36 0.35 0.32 0.31 0.30 0.30 0.30 0.31 0.31 0.31 0.33 0.33 0.33 0.33 0.34 0.34 0.35 0.35 0.35 0.35 0.36 0.36 0.37 0.37 0.36 0.36 0.35 0.35 0.36 0.37 0.38 0.37 0.36 0.35 0.35 0.35 0.36 0.37 0.37 0.37 0.37 0.36 0.36 0.37 0.36 0.36 0.36 0.36 0.36 0.36 0.36 0.36 0.37 0.37 0.38 0.38
0.26 0.26 0.27 0.29 0.31 0.31 0.28 0.27 0.26 0.25 0.25 0.27 0.28 0.29 0.30 0.31 0.32 0.33 0.34 0.34 0.34 0.32 0.30 0.30 0.31 0.31 0.31 0.32 0.32 0.32 0.32 0.31 0.32 0.33 0.33 0.33 0.34 0.35 0.36 0.36 0.36 0.36 0.36 0.36 0.36 0.35 0.36 0.35 0.34 0.32 0.32 0.33 0.35 0.35 0.36 0.37 0.36 0.36 0.36 0.36 0.37 0.37 0.37 0.37 0.36 0.35 0.35 0.35 0.35 0.35 0.35 0.35 0.35 0.36
0.26 0.25 0.25 0.27 0.30 0.30 0.30 0.29 0.29 0.28 0.26 0.26 0.26 0.27 0.28 0.29 0.30 0.30 0.31 0.31 0.31 0.31 0.30 0.29 0.28 0.29 0.29 0.29 0.29 0.31 0.31 0.31 0.30 0.31 0.32 0.33 0.33 0.33 0.33 0.33 0.34 0.34 0.33 0.34 0.36 0.35 0.33 0.32 0.32 0.32 0.32 0.32 0.33 0.35 0.36 0.37 0.37 0.37 0.36 0.36 0.36 0.37 0.37 0.36 0.35 0.34 0.34 0.33 0.33 0.33 0.33 0.33 0.33 0.33
0.26 0.26 0.27 0.28 0.29 0.30 0.30 0.31 0.30 0.29 0.28 0.27 0.25 0.26 0.26 0.27 0.28 0.28 0.28 0.29 0.29 0.28 0.28 0.29 0.29 0.28 0.28 0.28 0.27 0.29 0.30 0.30 0.30 0.29 0.29 0.30 0.32 0.32 0.32 0.31 0.32 0.32 0.32 0.32 0.32 0.33 0.33 0.33 0.34 0.34 0.34 0.34 0.33 0.34 0.36 0.36 0.36 0.37 0.36 0.36 0.35 0.36 0.36 0.35 0.35 0.34 0.33 0.33 0.32 0.32 0.32 0.31 0.31 0.30
0.25 0.26 0.26 0.27 0.28 0.29 0.30 0.31 0.32 0.29 0.30 0.29 0.27 0.27 0.27 0.27 0.26 0.26 0.26 0.27 0.27 0.27 0.27 0.27 0.27 0.27 0.27 0.27 0.27 0.28 0.28 0.27 0.27 0.29 0.28 0.28 0.29 0.30 0.31 0.32 0.31 0.32 0.31 0.31 0.31 0.33 0.34 0.34 0.35 0.35 0.35 0.34 0.34 0.34 0.34 0.35 0.36 0.36 0.35 0.34 0.34 0.34 0.34 0.34 0.33 0.33 0.32 0.32 0.31 0.30 0.29 0.29 0.28 0.28
0.24 0.24 0.24 0.24 0.26 0.28 0.29 0.30 0.31 0.31 0.32 0.31 0.28 0.28 0.27 0.26 0.26 0.25 0.25 0.25 0.25 0.25 0.25 0.25 0.27 0.26 0.26 0.26 0.25 0.24 0.24 0.24 0.24 0.26 0.27 0.27 0.29 0.29 0.29 0.31 0.32 0.31 0.30 0.31 0.31 0.32 0.33 0.33 0.33 0.34 0.34 0.35 0.35 0.34 0.32 0.32 0.32 0.32 0.33 0.32 0.32 0.32 0.32 0.31 0.31 0.30 0.29 0.29 0.29 0.29 0.29 0.29 0.28 0.28
0.24 0.24 0.25 0.25 0.26 0.27 0.28 0.29 0.29 0.30 0.31 0.31 0.30 0.29 0.28 0.27 0.26 0.25 0.25 0.24 0.24 0.23 0.23 0.23 0.24 0.24 0.23 0.24 0.24 0.24 0.24 0.24 0.25 0.25 0.26 0.26 0.27 0.27 0.28 0.28 0.30 0.31 0.30 0.30 0.30 0.31 0.33 0.32 0.32 0.32 0.33 0.34 0.33 0.32 0.31 0.30 0.30 0.29 0.29 0.29 0.29 0.28 0.28 0.28 0.27 0.27 0.27 0.26 0.26 0.27 0.27 0.27 0.27 0.27
0.23 0.24 0.24 0.24 0.25 0.26 0.28 0.29 0.30 0.30 0.30 0.31 0.30 0.30 0.30 0.29 0.27 0.25 0.24 0.24 0.24 0.22 0.21 0.22 0.22 0.22 0.22 0.23 0.24 0.24 0.24 0.25 0.25 0.24 0.25 0.25 0.25 0.25 0.25 0.24 0.27 0.30 0.30 0.29 0.29 0.30 0.32 0.32 0.31 0.32 0.32 0.32 0.32 0.32 0.30 0.29 0.28 0.27 0.26 0.25 0.25 0.25 0.25 0.25 0.25 0.25 0.25 0.25 0.25 0.25 0.26 0.26 0.27 0.27
0.24 0.24 0.24 0.24 0.24 0.23 0.24 0.25 0.26 0.27 0.28 0.29 0.30 0.31 0.30 0.30 0.29 0.29 0.26 0.24 0.24 0.23 0.22 0.21 0.21 0.21 0.21 0.22 0.23 0.23 0.23 0.23 0.24 0.24 0.24 0.24 0.24 0.24 0.24 0.24 0.25 0.28 0.30 0.28 0.28 0.28 0.30 0.31 0.31 0.30 0.31 0.31 0.30 0.30 0.29 0.27 0.26 0.26 0.26 0.25 0.25 0.25 0.25 0.25 0.25 0.25 0.25 0.25 0.25 0.25 0.26 0.26 0.26 0.26
0.26 0.25 0.25 0.24 0.24 0.24 0.24 0.25 0.25 0.25 0.26 0.27 0.28 0.29 0.30 0.29 0.29 0.28 0.28 0.27 0.25 0.24 0.23 0.22 0.21 0.21 0.21 0.22 0.22 0.23 0.23 0.23 0.23 0.24 0.24 0.23 0.23 0.23 0.23 0.24 0.25 0.27 0.28 0.27 0.26 0.26 0.28 0.29 0.29 0.29 0.29 0.29 0.29 0.28 0.28 0.27 0.27 0.26 0.26 0.26 0.26 0.26 0.26 0.26 0.26 0.25 0.25 0.25 0.24 0.24 0.24 0.24 0.24 0.24
0.27 0.27 0.26 0.26 0.25 0.26 0.27 0.27 0.27 0.27 0.27 0.27 0.27 0.27 0.27 0.27 0.26 0.26 0.26 0.27 0.27 0.27 0.25 0.23 0.22 0.23 0.24 0.22 0.23 0.25 0.25 0.23 0.21 0.22 0.22 0.23 0.23 0.22 0.22 0.24 0.25 0.26 0.27 0.26 0.26 0.25 0.26 0.27 0.27 0.27 0.28 0.28 0.28 0.27 0.26 0.27 0.27 0.26 0.26 0.25 0.25 0.25 0.24 0.24 0.24 0.24 0.24 0.24 0.23 0.23 0.23 0.23 0.22 0.22
0.29 0.28 0.28 0.28 0.27 0.27 0.27 0.28 0.28 0.27 0.26 0.26 0.26 0.26 0.26 0.27 0.27 0.28 0.27 0.27 0.27 0.26 0.26 0.25 0.24 0.24 0.26 0.25 0.26 0.26 0.26 0.24 0.24 0.24 0.24 0.24 0.24 0.24 0.24 0.24 0.25 0.25 0.26 0.25 0.25 0.23 0.25 0.26 0.26 0.26 0.26 0.26 0.25 0.25 0.25 0.26 0.26 0.25 0.24 0.24 0.24 0.24 0.24 0.23 0.23 0.23 0.23 0.22 0.21 0.21 0.21 0.22 0.22 0.21
0.31 0.30 0.29 0.28 0.27 0.27 0.26 0.27 0.27 0.27 0.27 0.27 0.26 0.26 0.25 0.26 0.27 0.28 0.29 0.29 0.29 0.28 0.27 0.26 0.26 0.26 0.27 0.27 0.27 0.27 0.26 0.26 0.25 0.24 0.23 0.23 0.22 0.21 0.21 0.20 0.22 0.22 0.25 0.25 0.24 0.23 0.24 0.25 0.24 0.25 0.25 0.25 0.24 0.24 0.24 0.23 0.23 0.23 0.23 0.23 0.22 0.22 0.22 0.22 0.22 0.22 0.21 0.21 0.21 0.21 0.21 0.21 0.20 0.20
0.31 0.31 0.30 0.29 0.28 0.28 0.27 0.27 0.28 0.28 0.28 0.28 0.27 0.25 0.25 0.26 0.26 0.26 0.28 0.29 0.29 0.29 0.28 0.28 0.27 0.27 0.27 0.28 0.28 0.27 0.27 0.26 0.25 0.24 0.21 0.20 0.20 0.19 0.18 0.19 0.20 0.20 0.23 0.24 0.25 0.24 0.23 0.24 0.24 0.23 0.23 0.23 0.22 0.22 0.22 0.21 0.21 0.21 0.21 0.21 0.21 0.21 0.21 0.21 0.20 0.20 0.20 0.20 0.20 0.19 0.19 0.18 0.18 0.18
0.30 0.31 0.31 0.30 0.29 0.29 0.28 0.28 0.29 0.30 0.30 0.29 0.28 0.27 0.25 0.25 0.24 0.25 0.27 0.28 0.29 0.29 0.29 0.29 0.28 0.27 0.27 0.27 0.27 0.27 0.27 0.26 0.25 0.23 0.20 0.20 0.20 0.19 0.19 0.18 0.19 0.20 0.22 0.23 0.25 0.22 0.22 0.23 0.23 0.22 0.22 0.21 0.21 0.21 0.20 0.19 0.19 0.20 0.20 0.20 0.20 0.20 0.20 0.19 0.19 0.18 0.17 0.16 0.16 0.16 0.16 0.16 0.17 0.17
0.29 0.30 0.31 0.31 0.31 0.30 0.29 0.30 0.30 0.31 0.31 0.30 0.29 0.28 0.27 0.25 0.25 0.26 0.28 0.28 0.27 0.28 0.27 0.27 0.27 0.26 0.27 0.27 0.26 0.26 0.26 0.26 0.25 0.24 0.22 0.22 0.21 0.19 0.19 0.19 0.19 0.18 0.19 0.22 0.24 0.21 0.21 0.21 0.21 0.20 0.18 0.18 0.19 0.20 0.19 0.18 0.18 0.17 0.17 0.17 0.17 0.17 0.16 0.16 0.15 0.15 0.15 0.15 0.15 0.15 0.15 0.16 0.16 0.16
0.26 0.28 0.29 0.30 0.30 0.30 0.31 0.31 0.32 0.32 0.32 0.31 0.30 0.29 0.27 0.25 0.24 0.28 0.29 0.29 0.28 0.28 0.28 0.27 0.27 0.26 0.26 0.26 0.26 0.26 0.25 0.25 0.24 0.23 0.23 0.22 0.22 0.21 0.20 0.20 0.19 0.18 0.19 0.21 0.23 0.20 0.19 0.19 0.18 0.19 0.18 0.16 0.16 0.18 0.18 0.17 0.17 0.16 0.16 0.15 0.15 0.15 0.15 0.14 0.14 0.13 0.13 0.13 0.13 0.13 0.14 0.15 0.16 0.15
0.24 0.25 0.27 0.29 0.30 0.31 0.32 0.32 0.31 0.31 0.32 0.32 0.31 0.29 0.28 0.28 0.28 0.30 0.29 0.29 0.29 0.28 0.28 0.27 0.26 0.26 0.26 0.25 0.25 0.25 0.25 0.24 0.23 0.23 0.22 0.23 0.23 0.22 0.21 0.20 0.19 0.18 0.19 0.20 0.21 0.19 0.17 0.17 0.17 0.17 0.16 0.16 0.16 0.16 0.16 0.16 0.16 0.15 0.15 0.14 0.14 0.13 0.13 0.13 0.13 0.12 0.12 0.12 0.12 0.13 0.13 0.14 0.14 0.14
0.24 0.24 0.26 0.27 0.29 0.29 0.30 0.31 0.31 0.30 0.30 0.32 0.31 0.30 0.30 0.30 0.30 0.29 0.29 0.29 0.28 0.27 0.26 0.25 0.25 0.24 0.24 0.23 0.23 0.23 0.23 0.23 0.22 0.22 0.23 0.23 0.23 0.23 0.22 0.21 0.19 0.18 0.18 0.19 0.19 0.17 0.16 0.16 0.16 0.16 0.16 0.15 0.15 0.16 0.15 0.14 0.14 0.14 0.14 0.14 0.14 0.13 0.13 0.13 0.12 0.12 0.12 0.12 0.12 0.12 0.12 0.13 0.14 0.14
0.24 0.24 0.25 0.26 0.27 0.27 0.28 0.29 0.29 0.30 0.31 0.32 0.31 0.31 0.31 0.31 0.30 0.30 0.28 0.28 0.26 0.25 0.25 0.24 0.23 0.23 0.23 0.22 0.22 0.22 0.22 0.22 0.22 0.22 0.22 0.22 0.22 0.22 0.22 0.22 0.21 0.20 0.19 0.18 0.19 0.17 0.16 0.15 0.16 0.15 0.15 0.15 0.14 0.14 0.14 0.12 0.12 0.13 0.13 0.13 0.13 0.13 0.13 0.12 0.12 0.12 0.12 0.12 0.12 0.12 0.13 0.13 0.13 0.13
0.24 0.24 0.25 0.26 0.27 0.27 0.27 0.28 0.29 0.30 0.30 0.31 0.31 0.31 0.31 0.30 0.30 0.28 0.27 0.26 0.25 0.24 0.23 0.22 0.22 0.21 0.22 0.22 0.21 0.21 0.22 0.22 0.22 0.21 0.21 0.21 0.21 0.21 0.21 0.21 0.20 0.19 0.18 0.17 0.17 0.17 0.16 0.15 0.15 0.15 0.15 0.14 0.13 0.13 0.12 0.12 0.11 0.11 0.11 0.11 0.12 0.12 0.12 0.12 0.12 0.12 0.12 0.12 0.12 0.12 0.12 0.11 0.12 0.11
0.25 0.25 0.26 0.26 0.27 0.27 0.27 0.29 0.29 0.29 0.30 0.31 0.31 0.30 0.30 0.29 0.28 0.27 0.26 0.25 0.24 0.22 0.22 0.21 0.21 0.21 0.21 0.22 0.22 0.22 0.22 0.21 0.21 0.20 0.20 0.21 0.21 0.21 0.20 0.19 0.18 0.17 0.17 0.16 0.16 0.15 0.15 0.15 0.14 0.14 0.14 0.13 0.12 0.12 0.11 0.10 0.10 0.10 0.11 0.11 0.11 0.11 0.12 0.12 0.12 0.12 0.12 0.12 0.12 0.12 0.11 0.11 0.11 0.11
0.26 0.26 0.27 0.27 0.27 0.28 0.29 0.29 0.29 0.28 0.29 0.30 0.30 0.29 0.28 0.28 0.27 0.26 0.25 0.24 0.23 0.22 0.22 0.21 0.21 0.21 0.21 0.21 0.21 0.21 0.21 0.21 0.20 0.20 0.19 0.19 0.19 0.19 0.17 0.15 0.15 0.15 0.15 0.15 0.15 0.14 0.14 0.13 0.13 0.13 0.12 0.12 0.12 0.11 0.11 0.10 0.10 0.10 0.10 0.10 0.11 0.11 0.12 0.12 0.12 0.12 0.12 0.12 0.12 0.11 0.11 0.11 0.11 0.11
0.26 0.26 0.26 0.27 0.27 0.27 0.28 0.28 0.28 0.28 0.29 0.29 0.28 0.27 0.27 0.27 0.26 0.25 0.24 0.23 0.23 0.22 0.21 0.21 0.21 0.21 0.21 0.21 0.21 0.20 0.20 0.20 0.19 0.19 0.19 0.19 0.17 0.16 0.14 0.14 0.14 0.13 0.14 0.14 0.14 0.14 0.14 0.13 0.12 0.12 0.11 0.11 0.11 0.10 0.11 0.11 0.10 0.10 0.10 0.11 0.11 0.10 0.11 0.11 0.12 0.12 0.12 0.12 0.12 0.12 0.12 0.12 0.12 0.12
0.25 0.25 0.25 0.26 0.26 0.26 0.26 0.26 0.26 0.26 0.27 0.27 0.26 0.26 0.26 0.26 0.25 0.24 0.24 0.24 0.23 0.22 0.22 0.21 0.21 0.20 0.20 0.20 0.20 0.19 0.19 0.19 0.19 0.19 0.18 0.16 0.15 0.14 0.14 0.13 0.13 0.13 0.13 0.13 0.13 0.13 0.13 0.12 0.12 0.11 0.11 0.10 0.10 0.10 0.10 0.10 0.10 0.10 0.10 0.10 0.11 0.11 0.11 0.11 0.11 0.11 0.12 0.12 0.12 0.11 0.11 0.12 0.11 0.11
0.25 0.25 0.24 0.24 0.24 0.24 0.24 0.24 0.24 0.24 0.24 0.24 0.25 0.25 0.25 0.24 0.24 0.23 0.22 0.21 0.21 0.21 0.21 0.20 0.20 0.19 0.19 0.19 0.19 0.19 0.18 0.18 0.18 0.18 0.16 0.15 0.14 0.14 0.13 0.12 0.12 0.12 0.11 0.11 0.11 0.11 0.12 0.11 0.11 0.11 0.11 0.11 0.11 0.10 0.10 0.10 0.10 0.10 0.10 0.10 0.10 0.10 0.10 0.11 0.11 0.11 0.12 0.12 0.11 0.11 0.11 0.11 0.11 0.11
0.25 0.24 0.24 0.24 0.23 0.23 0.23 0.23 0.23 0.23 0.23 0.23 0.23 0.23 0.23 0.23 0.22 0.22 0.21 0.21 0.21 0.21 0.20 0.20 0.20 0.19 0.19 0.18 0.18 0.18 0.18 0.17 0.17 0.15 0.14 0.14 0.14 0.13 0.12 0.11 0.11 0.11 0.11 0.10 0.10 0.10 0.11 0.11 0.11 0.11 0.11 0.11 0.11 0.11 0.11 0.10 0.09 0.10 0.10 0.10 0.10 0.10 0.10 0.11 0.11 0.11 0.11 0.11 0.11 0.10 0.10 0.11 0.11 0.12
0.24 0.23 0.23 0.23 0.23 0.23 0.23 0.23 0.22 0.22 0.22 0.22 0.22 0.22 0.22 0.22 0.21 0.21 0.21 0.21 0.21 0.20 0.20 0.20 0.19 0.19 0.19 0.18 0.18 0.18 0.17 0.16 0.14 0.14 0.14 0.13 0.13 0.12 0.11 0.11 0.10 0.10 0.10 0.10 0.10 0.10 0.10 0.10 0.10 0.10 0.10 0.10 0.10 0.10 0.11 0.11 0.10 0.10 0.10 0.10 0.10 0.10 0.10 0.11 0.11 0.11 0.11 0.11 0.11 0.10 0.10 0.10 0.11 0.11
0.23 0.23 0.23 0.22 0.22 0.22 0.22 0.22 0.22 0.22 0.22 0.22 0.21 0.21 0.21 0.20 0.21 0.20 0.20 0.21 0.20 0.20 0.20 0.19 0.19 0.19 0.19 0.18 0.18 0.17 0.16 0.14 0.13 0.13 0.12 0.12 0.11 0.11 0.10 0.10 0.10 0.10 0.10 0.10 0.10 0.10 0.10 0.10 0.10 0.09 0.09 0.09 0.09 0.08 0.09 0.11 0.11 0.10 0.10 0.10 0.10 0.10 0.11 0.11 0.11 0.11 0.11 0.11 0.11 0.10 0.10 0.09 0.10 0.11
0.22 0.22 0.22 0.22 0.22 0.22 0.21 0.22 0.22 0.22 0.22 0.21 0.21 0.21 0.20 0.20 0.20 0.20 0.21 0.21 0.20 0.20 0.20 0.19 0.19 0.19 0.18 0.18 0.16 0.15 0.14 0.13 0.12 0.11 0.11 0.10 0.10 0.10 0.09 0.09 0.09 0.09 0.09 0.10 0.10 0.10 0.10 0.10 0.10 0.09 0.09 0.08 0.08 0.08 0.08 0.10 0.11 0.12 0.11 0.10 0.10 0.10 0.10 0.11 0.11 0.10 0.11 0.11 0.11 0.10 0.10 0.10 0.10 0.10
0.22 0.22 0.22 0.21 0.21 0.21 0.21 0.21 0.21 0.21 0.21 0.21 0.21 0.20 0.20 0.20 0.20 0.20 0.20 0.20 0.20 0.19 0.19 0.19 0.18 0.17 0.16 0.15 0.13 0.12 0.11 0.11 0.10 0.10 0.10 0.10 0.09 0.09 0.09 0.09 0.09 0.09 0.09 0.09 0.10 0.10 0.10 0.10 0.09 0.09 0.09 0.08 0.08 0.08 0.08 0.09 0.09 0.10 0.12 0.11 0.10 0.11 0.11 0.11 0.10 0.10 0.10 0.11 0.10 0.11 0.11 0.10 0.10 0.10
0.22 0.21 0.21 0.21 0.21 0.21 0.21 0.21 0.21 0.21 0.21 0.20 0.20 0.20 0.19 0.19 0.18 0.18 0.19 0.19 0.19 0.18 0.18 0.17 0.15 0.14 0.13 0.12 0.11 0.10 0.10 0.09 0.09 0.09 0.09 0.09 0.09 0.09 0.09 0.09 0.09 0.09 0.09 0.09 0.09 0.10 0.10 0.10 0.10 0.10 0.10 0.09 0.09 0.09 0.09 0.09 0.09 0.09 0.11 0.11 0.11 0.11 0.11 0.10 0.10 0.10 0.10 0.10 0.10 0.10 0.10 0.10 0.10 0.10
0.21 0.22 0.21 0.21 0.21 0.21 0.21 0.21 0.21 0.21 0.20 0.20 0.20 0.20 0.19 0.17 0.16 0.16 0.16 0.16 0.15 0.15 0.14 0.13 0.12 0.11 0.11 0.10 0.10 0.09 0.09 0.09 0.09 0.09 0.09 0.09 0.09 0.09 0.09 0.09 0.09 0.09 0.09 0.09 0.09 0.09 0.10 0.10 0.10 0.10 0.10 0.10 0.10 0.10 0.10 0.10 0.10 0.10 0.10 0.11 0.12 0.11 0.11 0.11 0.10 0.09 0.09 0.09 0.09 0.09 0.08 0.08 0.08 0.08
0.22 0.21 0.21 0.22 0.21 0.21 0.21 0.21 0.21 0.21 0.20 0.20 0.20 0.20 0.18 0.16 0.14 0.13 0.13 0.13 0.12 0.12 0.11 0.11 0.10 0.10 0.09 0.09 0.09 0.09 0.09 0.09 0.09 0.09 0.09 0.09 0.09 0.09 0.09 0.09 0.09 0.09 0.09 0.09 0.09 0.09 0.10 0.10 0.11 0.11 0.11 0.11 0.11 0.11 0.10 0.09 0.09 0.09 0.10 0.10 0.11 0.11 0.11 0.11 0.10 0.09 0.09 0.09 0.09 0.08 0.07 0.07 0.06 0.06
0.22 0.21 0.22 0.22 0.21 0.21 0.21 0.21 0.21 0.21 0.21 0.20 0.20 0.18 0.16 0.14 0.13 0.12 0.11 0.10 0.10 0.10 0.09 0.09 0.09 0.09 0.09 0.09 0.09 0.09 0.09 0.09 0.09 0.09 0.09 0.09 0.09 0.09 0.09 0.09 0.09 0.09 0.09 0.09 0.09 0.10 0.11 0.11 0.11 0.11 0.11 0.11 0.10 0.09 0.09 0.09 0.08 0.09 0.09 0.09 0.09 0.10 0.10 0.09 0.09 0.09 0.09 0.08 0.07 0.06 0.06 0.05 0.05 0.05
0.22 0.22 0.21 0.22 0.22 0.22 0.21 0.21 0.21 0.21 0.20 0.19 0.18 0.17 0.15 0.13 0.12 0.11 0.10 0.09 0.09 0.09 0.09 0.09 0.09 0.09 0.09 0.09 0.09 0.10 0.10 0.10 0.10 0.10 0.09 0.09 0.09 0.09 0.09 0.09 0.09 0.09 0.09 0.10 0.10 0.10 0.11 0.11 0.11 0.10 0.10 0.10 0.09 0.09 0.08 0.08 0.09 0.09 0.09 0.08 0.08 0.08 0.08 0.08 0.07 0.07 0.07 0.07 0.07 0.07 0.06 0.06 0.05 0.04
0.22 0.22 0.22 0.22 0.22 0.21 0.21 0.21 0.20 0.20 0.19 0.18 0.17 0.16 0.15 0.13 0.11 0.11 0.10 0.10 0.09 0.09 0.09 0.09 0.09 0.09 0.09 0.10 0.10 0.10 0.10 0.10 0.10 0.09 0.09 0.09 0.09 0.09 0.09 0.09 0.10 0.10 0.10 0.10 0.10 0.10 0.10 0.10 0.10 0.10 0.09 0.09 0.09 0.09 0.08 0.08 0.08 0.07 0.06 0.06 0.06 0.06 0.06 0.06 0.06 0.06 0.06 0.06 0.06 0.06 0.06 0.07 0.07 0.07
0.22 0.22 0.21 0.21 0.21 0.21 0.21 0.20 0.20 0.19 0.19 0.18 0.17 0.16 0.15 0.14 0.13 0.11 0.11 0.10 0.10 0.09 0.09 0.09 0.09 0.09 0.09 0.09 0.09 0.09 0.09 0.10 0.10 0.10 0.10 0.10 0.10 0.10 0.10 0.10 0.10 0.10 0.10 0.10 0.09 0.09 0.09 0.09 0.09 0.09 0.09 0.09 0.09 0.08 0.08 0.07 0.06 0.06 0.06 0.06 0.06 0.06 0.05 0.05 0.05 0.05 0.05 0.05 0.05 0.06 0.06 0.06 0.07 0.07
Wind_Speed
59 60 59 59 59 60 60 60 60 60 59 59 58 57 56 54 53 52 53 54 54 54 54 53 53 54 54 53 52 52 52 52 52 52 52 51 51 51 51 51 50 50 49 49 48 47 47 47 47 46 46 46 47 47 47 48 48 48 48 48 47 47 47 47 47 47 47 47 47 46 46 46 46 46
57 59 60 59 59 59 59 60 60 60 60 59 59 58 57 57 55 54 54 55 55 54 55 55 54 54 54 54 54 54 53 53 53 53 53 53 52 52 52 52 52 51 51 50 49 48 48 47 47 47 47 46 46 46 47 47 47 47 47 47 48 48 48 48 48 47 47 47 47 47 47 47 47 47
53 56 58 59 59 59 59 59 60 60 60 60 59 59 58 58 57 56 55 55 56 55 55 56 55 54 55 55 55 55 54 54 54 54 54 54 54 53 53 53 53 52 52 51 50 50 49 48 48 47 47 47 47 47 47 47 47 47 47 48 48 48 48 48 48 48 47 47 47 47 47 47 47 47
49 51 54 56 58 58 58 59 59 59 59 60 60 60 59 58 58 57 56 56 56 56 56 56 56 55 55 55 56 55 55 55 55 55 55 55 55 54 54 54 54 53 53 52 52 51 50 49 49 48 48 47 47 47 47 47 47 47 48 48 48 48 48 48 48 47 47 47 47 47 47 47 48 48
45 47 50 52 54 56 57 58 58 58 59 59 59 60 60 60 59 59 58 57 57 56 56 57 56 56 56 56 56 56 55 55 56 56 56 56 55 55 55 55 55 54 54 53 52 52 51 50 50 49 49 48 48 48 48 48 48 48 48 48 48 48 48 48 48 48 48 48 48 48 48 48 48 48
41 43 46 48 50 52 54 56 56 57 58 58 58 59 59 60 60 60 59 59 58 58 57 57 57 57 57 57 57 57 56 56 56 56 56 56 56 56 55 55 55 55 55 54 54 53 52 52 51 50 50 50 49 49 48 48 49 49 49 49 49 49 49 49 49 48 48 48 48 48 48 48 48 48
38 40 42 45 47 48 50 52 53 55 56 57 58 58 58 59 59 60 60 59 59 59 58 58 58 58 59 59 58 58 57 57 57 57 57 56 56 56 56 56 56 56 56 55 55 54 54 53 53 52 52 51 50 50 49 49 49 49 49 49 49 50 50 50 50 50 50 50 49 49 49 49 49 49
36 37 38 40 42 45 47 49 51 52 53 55 56 57 58 58 59 59 59 59 59 58 58 58 59 59 59 60 59 59 58 58 58 58 57 57 57 57 57 56 56 56 56 56 56 55 55 54 54 54 53 52 52 51 51 50 50 50 50 50 50 50 50 51 51 51 51 51 51 51 51 50 50 50
35 36 37 38 38 40 43 45 47 49 51 52 53 55 56 56 57 58 58 58 58 57 57 57 58 58 59 59 59 59 59 59 59 59 58 58 57 57 57 57 56 56 56 56 56 55 55 55 55 55 54 54 53 53 52 51 51 50 50 50 51 51 51 51 52 52 52 52 52 52 52 52 52 52
35 36 37 38 38 39 40 41 43 45 47 49 51 52 54 54 55 56 57 57 57 57 57 57 57 57 58 58 58 59 59 59 59 58 58 58 58 57 57 57 56 56 56 56 56 55 56 56 56 55 55 54 54 54 53 53 52 52 51 51 52 52 52 52 52 52 52 52 52 52 53 53 53 53
35 36 37 38 39 40 40 40 40 42 43 44 46 48 50 52 53 54 55 56 57 57 57 57 56 57 57 57 57 58 58 59 59 58 58 58 58 58 57 57 56 56 56 56 56 56 56 56 56 55 55 55 54 54 54 54 53 53 53 52 52 52 53 53 53 53 53 53 53 53 53 53 53 54
36 37 38 39 40 40 41 41 40 41 41 42 43 44 46 48 50 51 53 54 55 56 56 56 56 56 56 56 56 56 57 58 59 59 59 58 58 57 57 56 56 56 55 55 56 56 57 56 56 56 56 56 55 55 54 54 54 54 53 53 53 53 53 53 53 53 53 53 53 53 53 53 53 54
35 36 37 39 40 41 42 42 42 42 42 41 42 42 43 44 46 47 49 50 52 53 55 55 56 56 56 56 55 55 57 58 58 58 58 58 58 57 57 57 56 56 56 56 56 56 57 56 56 56 56 56 55 55 54 54 54 53 53 53 53 53 53 53 53 53 53 53 53 53 53 53 54 54
33 34 35 37 39 40 41 42 43 43 43 43 43 42 43 43 44 45 46 47 47 49 51 53 54 55 56 57 56 56 56 57 57 57 58 59 58 57 57 57 57 57 57 56 57 57 57 56 56 56 55 55 55 55 54 54 54 53 53 53 53 53 53 53 53 53 53 53 53 53 53 54 54 54
32 32 33 34 35 37 39 40 41 42 42 43 43 43 43 43 44 44 45 45 45 46 47 49 50 52 55 56 57 56 56 56 56 57 58 58 58 58 58 57 57 57 57 57 57 57 57 56 56 55 55 55 55 54 54 54 54 54 54 53 53 53 53 53 53 53 53 53 53 54 54 54 55 55
32 32 32 32 33 34 36 37 39 40 41 42 42 42 42 43 44 44 45 45 45 45 45 46 47 49 51 53 55 56 56 55 55 55 56 57 57 58 58 58 57 57 57 57 57 57 56 55 55 54 54 54 54 54 54 54 54 54 53 53 53 53 53 53 53 53 53 54 54 54 55 55 55 56
33 32 32 32 32 32 33 34 35 37 39 40 41 42 42 43 43 44 45 45 46 46 45 46 47 47 48 49 51 53 54 54 54 54 54 54 55 55 56 56 56 55 55 56 55 55 55 54 54 54 53 53 53 53 53 53 53 53 53 53 53 53 53 53 53 53 53 54 54 54 55 55 55 56
35 34 33 32 32 31 32 32 32 33 35 36 38 39 41 42 43 44 45 45 46 46 46 46 46 46 46 46 47 49 51 52 52 53 52 52 52 52 52 52 53 53 54 54 54 53 54 53 53 53 52 52 52 52 52 53 53 53 53 53 53 53 53 52 52 52 53 53 53 53 54 54 55 55
37 36 35 34 33 32 32 32 31 31 32 33 34 35 37 39 40 41 43 44 45 45 46 46 45 45 45 45 45 46 47 50 51 51 51 51 51 50 50 50 51 51 52 52 52 52 52 53 53 53 52 52 52 52 52 53 53 53 53 53 52 52 52 52 52 52 52 52 52 52 53 53 53 54
37 37 37 36 35 34 32 32 32 31 30 30 31 32 33 34 35 37 39 41 43 44 45 45 45 44 44 44 45 44 45 46 47 48 49 49 49 49 49 49 50 50 50 51 51 51 52 52 52 52 52 51 52 52 52 52 52 52 52 52 52 52 52 51 51 51 51 51 51 51 52 52 52 53
35 36 37 37 36 35 34 33 33 32 31 31 30 30 30 31 32 33 34 36 39 41 42 43 44 43 44 44 45 44 44 44 44 45 46 47 48 48 48 48 48 49 49 50 50 51 51 52 52 52 51 51 51 51 51 51 51 51 51 51 51 51 50 50 50 49 50 50 50 50 51 51 52 52
32 34 36 36 36 35 34 34 33 33 33 31 30 30 29 29 30 30 30 31 33 36 37 39 41 42 43 44 44 44 44 44 43 43 44 44 45 46 47 47 47 47 48 49 49 50 51 51 51 51 51 51 51 51 50 50 50 50 50 49 49 48 48 48 48 49 49 49 49 50 50 51 51 52
29 31 33 35 35 35 34 34 33 33 33 31 30 29 29 28 29 28 28 28 30 31 33 34 36 38 40 41 42 42 43 43 43 43 43 42 43 43 44 44 44 45 46 48 49 49 50 50 50 51 50 50 50 50 50 50 50 49 48 48 47 47 47 48 48 48 48 48 48 49 49 50 51 51
25 26 29 32 34 34 33 33 32 32 32 31 30 29 28 27 27 27 28 29 29 30 31 31 33 35 36 37 38 39 40 40 41 41 41 41 41 41 42 42 42 42 43 44 46 47 47 47 48 49 49 49 49 49 49 49 48 48 47 47 47 47 47 47 48 47 47 48 48 49 49 50 50 51
21 23 24 27 30 32 32 31 31 30 30 30 28 28 27 27 27 26 27 29 29 29 29 29 30 31 33 34 35 35 36 36 37 37 38 39 39 40 40 40 40 40 40 41 42 42 43 43 44 45 45 46 47 47 48 48 47 47 47 47 46 46 46 46 47 47 47 47 48 48 49 50 50 50
17 19 20 23 27 30 30 30 29 28 27 27 26 26 26 26 25 25 25 26 26 27 27 27 27 28 29 30 31 31 32 33 33 34 35 36 37 38 38 38 38 39 39 40 40 40 40 40 41 41 41 42 43 44 45 45 45 45 44 44 44 45 45 46 46 46 46 46 47 47 48 49 49 50
12 14 16 18 22 26 28 27 26 25 25 24 24 24 24 23 22 22 21 22 23 23 24 24 25 25 26 27 28 29 30 30 31 32 33 33 34 34 34 35 35 36 37 37 38 38 38 38 38 39 39 39 39 40 41 42 42 42 42 43 43 44 44 45 45 45 46 46 46 47 47 48 49 50
7 9 11 14 18 23 25 24 24 23 21 21 21 21 20 19 18 18 18 19 19 20 21 22 22 23 24 25 26 27 28 29 29 29 29 29 30 30 30 31 32 33 34 34 35 35 36 36 36 36 36 36 36 37 38 39 40 41 41 42 42 42 43 43 44 44 45 45 46 46 46 47 48 49
3 5 7 10 14 19 21 21 20 18 17 17 17 18 17 16 16 16 16 17 18 19 20 20 21 21 22 23 24 25 26 27 27 27 26 27 27 27 28 28 29 30 31 31 32 32 33 33 34 34 34 35 35 36 37 38 38 39 40 40 41 41 41 42 42 43 43 44 44 44 45 46 47 48
6 6 7 9 12 16 17 17 16 15 14 15 16 16 15 15 14 14 15 16 16 17 18 19 19 20 20 21 22 23 24 24 25 25 25 25 25 25 26 26 27 27 28 29 30 30 31 31 32 32 33 33 34 34 35 36 37 38 39 40 40 40 40 40 41 42 42 43 43 44 45 46 47 48
8 8 9 11 13 14 15 14 13 12 12 13 13 13 13 13 13 13 13 14 15 15 16 16 17 18 19 19 20 21 22 22 22 22 22 22 23 23 23 24 25 25 26 26 27 28 29 29 29 30 31 31 32 33 33 34 35 36 37 38 38 39 39 39 40 41 41 42 43 44 45 46 47 48
8 9 10 11 12 12 12 12 11 11 11 11 11 11 11 11 11 11 11 12 13 14 14 15 15 16 17 18 19 19 20 19 19 19 20 20 21 21 21 22 23 23 24 24 24 25 26 27 27 28 29 30 31 31 32 33 34 35 36 36 37 38 38 39 39 40 40 42 43 44 45 46 46 47
7 7 8 8 9 9 9 9 9 9 9 10 10 10 10 10 10 10 10 11 12 13 13 14 15 16 16 17 17 18 17 17 17 17 18 18 19 19 19 20 20 20 21 22 22 23 24 25 26 27 28 29 30 31 32 33 34 35 35 36 37 38 38 39 40 40 41 42 44 45 45 45 45 45
6 6 6 6 6 7 7 8 8 8 9 9 9 9 9 9 9 9 10 11 12 12 13 13 14 15 15 16 16 16 16 15 16 16 16 17 17 17 18 18 18 18 19 19 20 21 22 23 24 25 27 28 29 31 32 33 34 34 35 36 37 38 39 39 40 41 41 42 44 45 46 45 45 45
4 4 4 5 5 6 6 6 7 8 8 8 8 8 8 8 9 9 10 10 11 12 12 13 14 15 15 15 15 15 15 15 16 16 16 16 16 16 17 17 17 17 18 18 19 19 20 21 22 23 25 26 27 29 31 32 33 33 34 36 37 38 38 39 40 41 42 43 44 45 46 46 46 46
2 2 3 3 4 5 5 6 6 7 7 8 8 8 8 8 8 9 9 10 11 11 12 12 13 14 14 14 15 15 15 15 15 15 15 15 16 16 16 16 16 17 17 18 18 19 19 20 21 22 23 24 25 26 28 30 31 32 34 35 36 37 38 39 40 41 43 43 44 45 46 47 48 47
2 2 2 2 3 4 4 5 6 6 7 7 8 7 7 7 7 8 9 9 10 11 11 12 12 12 13 13 14 14 14 15 15 15 15 15 15 15 15 16 16 16 17 18 18 19 20 21 21 23 23 24 26 27 28 29 31 32 34 35 36 37 39 40 41 42 43 44 45 46 47 49 49 49
2 2 2 2 2 3 3 4 5 6 6 7 7 6 6 6 6 7 8 8 9 10 10 11 11 12 12 12 13 13 13 14 14 14 15 15 15 15 15 16 16 17 18 18 19 20 21 22 23 24 25 26 27 28 29 30 31 32 34 36 37 39 40 41 42 43 44 45 46 47 48 50 51 51
3 2 2 2 2 3 3 4 5 6 6 6 6 6 6 6 6 7 8 8 9 9 10 10 11 11 12 12 13 13 13 14 14 14 14 15 15 15 16 16 17 18 18 19 20 21 22 23 24 25 26 27 29 30 31 32 33 34 35 37 39 40 41 42 43 44 45 46 47 48 49 51 52 53
3 3 3 3 3 3 4 4 5 5 5 5 5 5 5 5 6 7 8 8 9 9 10 10 11 11 12 12 12 13 13 14 14 14 15 15 16 16 17 17 18 18 19 20 22 23 24 25 26 27 28 29 31 32 33 34 35 36 37 38 39 40 41 42 43 44 45 46 48 49 50 51 52 53
4 3 3 3 3 3 3 4 4 5 5 5 5 4 4 5 5 6 7 8 8 9 10 10 11 11 12 12 13 13 13 14 14 15 16 16 17 18 18 19 19 20 21 22 24 25 26 26 27 28 30 31 32 33 34 35 36 37 37 38 39 41 42 43 44 45 46 47 48 49 50 51 52 53
4 3 3 3 3 3 3 3 4 4 4 4 4 4 4 4 5 6 6 7 8 9 9 10 11 11 12 13 13 14 14 15 16 16 17 18 18 19 20 21 22 22 23 25 26 27 27 28 29 30 31 32 33 34 35 36 37 38 39 40 40 41 43 44 45 46 47 47 48 49 50 50 50 51
4 3 2 2 2 2 2 2 3 3 3 4 4 3 3 4 5 6 7 7 8 9 10 10 11 12 13 13 14 15 16 16 17 18 19 19 20 21 22 23 24 25 26 27 28 28 29 30 31 32 33 34 34 35 36 37 39 40 40 41 41 42 43 44 45 46 46 47 47 48 49 49 49 50
3 3 2 1 1 1 2 2 2 3 3 3 4 4 4 5 6 6 7 8 9 10 11 11 12 13 14 14 15 16 17 18 18 19 20 21 22 23 24 25 26 27 28 29 30 30 31 32 33 33 34 35 36 37 38 39 40 40 41 41 42 42 42 43 43 44 45 45 46 48 49 50 50 51
3 3 2 1 0 1 2 2 2 3 3 4 5 5 6 6 6 7 8 9 10 11 11 12 13 14 15 15 16 17 18 19 20 21 22 23 24 25 25 26 27 28 29 30 31 32 33 33 34 34 35 36 37 37 38 39 39 40 40 41 41 42 42 42 43 44 44 44 45 46 48 49 50 51
Wind_Direction
242 242 242 242 242 242 242 242 242 242 242 242 242 242 242 242 243 242 242 242 242 241 241 241 242 242 242 243 242 242 242 242 242 242 242 242 242 242 242 242 242 243 244 244 244 245 246 246 246 246 246 246 246 247 247 247 248 248 249 249 249 250 250 250 251 251 251 252 251 251 252 251 251 251
242 242 242 242 242 242 242 242 242 242 242 242 242 242 242 241 242 243 243 243 242 241 241 241 242 242 242 242 242 242 242 242 241 242 242 242 242 242 242 242 243 244 244 244 245 245 245 246 246 246 246 246 247 247 247 247 248 248 249 249 249 250 250 250 251 251 251 252 251 251 252 252 252 252
244 243 242 242 242 242 242 242 242 242 242 242 242 242 242 242 242 242 244 244 243 242 242 242 242 242 242 242 242 242 242 241 241 241 242 242 242 242 242 243 243 244 245 245 245 245 245 245 245 246 246 247 247 247 248 248 248 249 249 249 249 250 250 250 251 251 251 251 252 252 252 252 252 252
244 243 243 242 242 242 242 242 242 242 242 243 243 242 242 243 243 242 243 244 244 243 243 242 242 242 242 242 242 242 242 242 241 241 242 242 241 242 242 243 243 244 245 245 245 244 244 245 245 246 246 247 247 248 248 249 249 249 249 250 250 250 250 250 251 251 251 251 252 252 252 252 253 253
244 243 243 243 243 242 242 242 242 242 242 243 243 243 243 243 243 242 243 244 245 244 244 243 243 242 242 242 242 242 242 242 242 242 242 242 242 242 243 243 243 244 244 244 244 244 244 245 245 246 246 247 247 248 249 249 249 250 250 250 250 250 250 251 251 251 251 251 252 252 252 252 253 253
245 244 244 243 243 243 243 242 242 242 242 242 242 242 242 242 242 242 243 243 244 244 244 244 243 243 242 242 242 242 242 243 242 242 242 241 242 242 243 243 243 244 244 244 244 244 245 245 245 246 246 247 247 248 249 249 250 250 250 250 251 251 251 251 251 251 251 251 252 252 253 253 253 253
246 246 245 245 244 243 243 243 243 243 243 243 242 242 242 242 242 242 242 243 244 244 244 244 243 243 242 242 242 242 243 243 243 242 242 241 242 242 243 243 243 243 243 244 244 244 245 245 246 246 247 247 248 248 249 250 250 250 251 251 251 251 251 252 252 252 252 252 252 252 253 253 253 254
247 246 246 245 245 243 243 242 243 243 243 243 243 243 242 242 242 242 242 242 243 244 244 243 243 243 243 243 243 243 243 243 243 242 242 242 242 242 243 243 244 244 243 243 243 243 244 245 246 247 247 248 248 248 249 249 250 251 251 251 251 251 252 252 252 252 252 253 253 253 253 254 254 254
249 248 247 246 246 245 243 242 242 242 242 243 243 243 242 242 242 242 242 242 242 243 243 243 243 243 243 243 243 242 242 242 242 242 242 242 242 242 243 243 244 244 244 243 243 243 244 245 245 246 247 248 248 249 249 249 250 250 251 251 251 251 251 252 252 252 253 253 253 253 254 254 254 254
250 249 248 247 247 246 245 244 242 241 241 241 242 242 242 242 242 241 241 241 242 242 243 243 243 243 243 243 243 242 241 241 241 241 241 242 242 243 243 243 244 244 244 243 243 243 244 244 245 246 246 247 248 248 249 249 250 250 251 251 251 251 251 252 252 252 253 253 253 254 254 254 254 255
252 251 250 248 247 246 245 244 243 242 241 241 241 241 242 241 241 241 241 241 241 242 243 243 243 243 243 243 243 242 241 241 241 241 241 242 242 243 243 243 244 244 244 243 243 243 244 245 245 246 246 247 247 248 248 249 250 250 251 251 251 251 251 251 252 252 253 253 253 254 254 254 255 255
254 253 252 250 248 247 246 245 244 243 242 241 241 240 241 241 240 240 240 240 241 242 242 243 243 243 243 243 243 242 241 240 241 241 242 242 243 243 243 243 243 243 243 243 243 244 244 245 245 246 246 246 247 248 248 249 249 250 250 251 251 251 251 251 252 252 253 253 254 254 255 255 255 256
255 254 253 251 250 248 246 246 245 244 243 243 242 241 240 240 240 240 240 240 241 241 242 242 242 242 242 242 242 242 241 241 242 241 241 242 242 242 243 243 243 242 243 243 244 244 245 245 246 246 247 247 247 248 249 249 249 250 250 250 251 251 251 252 252 252 253 253 254 255 255 255 256 256
257 255 254 253 251 249 247 246 245 244 244 244 243 242 241 240 240 240 240 240 240 241 242 242 242 241 241 241 241 242 242 242 241 241 240 241 241 241 242 243 243 243 243 243 244 245 245 246 246 247 247 247 247 248 249 249 250 250 250 250 250 251 251 252 252 253 253 254 254 255 255 256 256 256
257 256 254 253 251 249 248 246 245 244 244 243 243 242 242 241 240 240 240 240 240 241 242 242 241 241 241 241 241 242 242 241 241 241 241 241 241 241 241 243 243 243 243 244 245 245 245 245 246 247 247 247 247 248 249 249 250 250 250 251 251 251 251 251 252 253 253 254 254 255 255 255 256 256
256 255 254 252 251 250 248 246 245 244 243 243 242 242 241 241 241 240 240 240 241 241 241 242 242 241 242 241 241 242 242 241 241 241 241 241 241 241 242 242 243 243 243 243 244 245 244 244 245 246 246 247 247 248 249 249 249 249 250 250 251 252 252 252 252 253 253 254 254 255 255 256 256 256
255 254 252 251 250 249 247 246 245 243 242 242 242 241 242 242 242 242 241 241 241 241 242 242 242 242 242 242 241 242 241 241 240 240 240 240 241 241 242 243 243 243 243 243 243 243 243 243 243 244 246 246 247 248 248 248 248 249 249 250 251 252 252 253 253 253 254 254 255 255 256 256 257 257
256 253 251 250 249 247 246 245 244 243 242 241 241 241 242 242 242 242 242 242 242 242 242 243 243 243 243 243 243 242 240 239 239 240 240 240 240 241 242 242 243 243 243 242 242 243 242 242 243 244 245 246 247 247 247 247 248 249 250 250 251 252 252 253 254 254 255 255 255 256 256 257 257 257
255 252 249 247 247 246 244 243 242 242 241 241 240 241 242 242 242 242 242 242 243 243 243 243 243 243 243 243 243 242 240 240 240 240 240 240 240 240 241 241 242 243 243 242 242 243 243 242 243 244 245 246 246 246 247 247 248 249 250 250 251 252 253 253 254 254 255 255 256 256 257 257 257 257
253 250 247 245 244 243 243 242 241 240 239 239 240 241 242 242 243 243 243 243 243 243 243 243 243 242 242 242 242 241 241 240 240 239 240 239 239 239 240 241 241 242 243 242 242 243 243 243 243 245 245 245 246 246 246 247 247 248 249 250 251 252 253 253 254 254 255 256 256 257 257 257 258 258
251 247 245 242 241 241 241 240 239 238 237 237 238 240 241 242 242 243 243 243 243 242 242 242 241 241 241 241 240 240 240 240 239 239 239 239 239 239 240 241 242 242 243 243 242 243 243 244 245 246 246 246 246 246 246 247 247 248 249 250 251 251 252 252 253 254 255 256 256 257 257 258 259 260
251 246 243 240 239 238 238 237 237 236 236 236 236 237 239 241 242 243 243 243 243 242 241 241 240 240 240 240 239 239 238 238 238 238 239 239 239 239 240 241 241 242 243 243 243 244 244 245 245 246 246 247 246 246 247 247 247 248 248 249 249 250 250 251 252 254 255 256 257 258 258 259 260 260
251 246 242 238 235 235 235 234 234 234 235 236 237 237 239 240 242 243 242 242 242 242 241 240 240 239 240 240 240 239 238 237 238 239 239 239 238 239 240 240 241 242 243 243 243 244 245 245 245 245 245 246 246 246 246 247 247 247 247 247 248 249 250 252 253 254 255 256 257 258 259 260 260 261
252 245 241 236 232 230 231 231 232 232 233 235 236 238 238 240 242 243 241 241 242 243 242 240 240 240 239 239 239 238 237 237 237 238 239 238 238 239 239 239 240 242 243 243 242 243 244 244 244 244 244 245 246 246 245 245 245 246 247 248 249 250 251 252 253 254 256 257 259 259 260 261 261 262
252 244 239 233 228 226 226 227 228 230 230 232 235 237 239 241 243 242 242 241 242 242 241 240 240 240 238 237 236 236 235 234 235 237 238 238 239 239 239 239 240 241 242 242 241 241 241 242 242 243 243 244 244 244 244 245 245 246 248 249 250 251 251 252 253 255 257 258 260 261 261 262 263 264
248 240 236 231 226 222 222 224 226 227 229 231 234 236 238 241 241 240 241 240 239 239 238 237 237 237 235 233 232 231 231 231 233 235 237 238 239 240 240 240 240 241 241 241 240 240 241 241 241 241 242 243 243 243 243 244 245 246 247 248 249 251 252 253 254 255 257 259 260 262 262 263 264 265
239 232 229 226 221 218 218 220 222 224 227 229 230 232 233 235 235 236 237 237 236 235 235 234 233 231 229 227 226 226 227 229 232 235 237 237 238 239 239 239 239 240 240 240 240 240 240 240 240 240 241 241 242 241 241 242 244 246 247 248 250 251 252 253 254 256 257 259 261 262 263 264 265 266
226 219 216 215 211 209 210 212 215 218 221 223 223 225 226 227 230 232 234 234 233 231 230 229 228 227 225 224 224 225 226 229 232 233 234 235 236 236 238 238 238 238 238 238 239 239 239 239 239 240 240 240 240 241 241 242 244 246 248 249 250 251 252 253 255 256 258 259 261 262 263 264 265 267
149 180 191 194 194 194 196 199 203 207 211 213 215 217 219 222 228 231 231 231 229 228 227 226 225 225 224 224 224 225 226 228 229 230 231 231 233 235 236 236 236 236 236 237 237 237 237 238 238 238 239 240 240 241 241 242 244 246 248 250 251 252 253 254 255 256 258 260 261 262 263 264 266 268
104 127 150 162 169 174 179 185 190 196 201 205 208 211 215 221 226 228 228 228 227 227 227 226 224 223 223 223 224 224 224 225 226 227 228 229 231 233 233 232 233 235 235 235 236 236 236 236 237 238 239 240 240 241 241 242 245 248 249 250 252 253 254 255 256 257 259 260 261 262 264 265 267 269
94 109 123 134 145 154 163 173 181 188 195 200 204 208 214 220 224 225 226 227 226 226 225 223 222 221 220 220 219 218 219 221 223 225 226 227 229 230 230 230 232 234 235 234 233 234 235 235 236 237 238 239 240 241 242 244 246 249 251 252 252 254 255 257 258 259 260 261 262 264 265 267 268 270
91 105 116 125 136 147 156 166 176 184 192 199 204 210 215 219 221 224 227 227 226 224 221 218 216 215 214 213 212 213 216 218 220 222 225 226 227 227 228 229 231 232 233 233 232 233 234 235 236 238 240 241 242 244 245 247 249 251 253 254 254 255 257 259 260 261 262 263 264 265 266 268 270 271
99 109 120 130 141 151 160 169 179 187 194 201 206 211 213 216 220 223 224 223 221 219 215 211 209 208 207 207 208 210 213 215 217 219 221 222 222 223 224 226 227 228 230 231 232 233 234 235 237 239 242 244 245 247 248 249 251 252 254 255 256 257 258 260 261 262 264 265 265 267 268 269 270 271
112 120 129 140 151 161 170 178 185 190 195 198 202 206 209 213 216 218 218 216 213 211 208 206 205 204 204 205 207 209 210 213 215 216 217 217 218 219 220 223 225 226 228 230 232 234 236 238 239 242 245 247 249 250 250 251 253 254 255 256 257 258 260 262 263 264 265 266 268 269 269 270 271 272
114 129 141 151 161 169 176 182 187 190 192 193 194 198 201 205 208 209 208 207 206 204 203 203 203 204 205 205 207 209 210 212 214 214 215 216 218 219 221 223 225 227 229 231 234 237 239 241 243 246 249 251 253 254 253 253 254 257 258 259 260 261 263 265 266 267 268 269 270 270 270 271 272 273
99 133 153 163 171 177 183 190 193 194 193 191 191 192 193 197 200 200 199 198 199 199 199 200 201 203 204 205 206 208 210 210 211 212 215 217 219 221 223 226 228 230 233 235 238 241 243 245 247 249 252 254 256 258 258 256 257 259 261 263 264 265 266 267 268 269 270 270 271 271 272 272 273 275
93 131 150 162 175 183 189 193 194 193 192 191 190 190 191 194 198 197 195 195 196 197 198 199 200 201 203 205 206 208 208 209 210 213 216 218 220 223 226 230 233 236 238 241 243 245 247 249 251 253 255 257 258 260 262 263 263 263 263 265 267 268 269 270 271 271 271 272 272 273 273 274 275 276
88 119 132 142 162 172 180 185 185 183 183 183 182 182 185 190 194 196 195 195 198 199 200 202 203 204 206 207 207 208 209 211 214 216 219 222 225 228 232 235 239 241 244 247 249 251 252 254 255 256 257 259 261 263 265 267 267 267 268 268 269 271 272 272 272 273 273 274 274 274 275 275 276 277
72 96 109 119 136 150 161 168 170 169 169 170 171 173 176 182 187 191 193 194 197 199 201 203 205 207 208 208 209 210 212 215 218 221 224 228 231 234 238 241 244 247 250 253 255 257 258 259 260 261 262 263 265 266 267 268 269 271 273 273 272 272 273 273 274 274 275 276 276 276 276 277 277 278
67 83 100 110 121 138 151 158 163 165 166 167 170 174 179 183 187 192 194 195 197 199 202 204 206 207 208 211 213 215 218 221 224 228 231 234 237 240 243 247 250 252 255 258 260 261 262 263 264 265 266 267 268 270 271 271 272 273 275 275 275 275 275 275 276 276 277 278 278 278 278 278 279 279
75 85 99 109 115 129 146 156 163 168 172 175 178 183 188 192 194 196 199 200 200 202 205 207 209 211 215 218 220 223 226 229 233 236 239 241 244 247 250 252 255 258 260 262 264 265 266 267 268 269 270 271 272 273 273 273 273 274 275 276 277 277 277 277 277 278 278 279 280 280 280 280 280 279
67 80 95 109 116 125 139 153 163 172 179 185 189 194 199 202 203 203 204 207 209 211 214 217 220 222 226 228 230 233 235 237 240 243 246 248 250 253 255 257 260 262 263 266 268 270 271 272 272 273 274 274 274 274 274 274 275 276 277 278 278 278 279 279 279 280 280 281 281 281 281 282 281 281
51 60 81 109 126 138 152 164 174 184 191 198 205 212 217 220 220 218 218 221 223 225 228 230 232 234 236 238 240 242 244 246 248 249 252 254 256 257 260 262 264 265 267 269 271 273 274 275 275 276 276 276 276 275 276 276 277 278 278 279 279 279 280 281 281 282 282 282 282 282 282 282 282 282
42 41 47 81 141 168 184 193 200 208 216 223 230 237 242 244 243 239 237 236 236 237 240 241 242 244 245 246 247 249 250 253 254 256 258 260 261 263 264 266 268 269 270 272 274 275 276 277 277 277 278 278 278 277 277 278 279 279 280 280 280 281 282 282 283 283 284 284 284 285 284 284 283 283
25 25 20 6 272 228 226 229 232 236 241 246 250 254 257 258 257 254 251 249 248 248 249 250 250 251 252 253 253 255 256 258 260 262 264 265 266 268 269 270 271 273 274 275 276 277 278 279 279 279 279 279 279 279 279 280 280 281 281 282 282 282 283 284 284 284 284 284 286 287 287 287 286 285